www.pogodaiklimat.ru

Погода и климат >> Архив погоды >> Россия >> Новосибирская область >> Усть-Тарка


ПОГОДА в Усть-Тарке

  • Прогноз погоды в Усть-Тарке
  • Монитор погоды в Усть-Тарке

АРХИВ ПОГОДЫ в Усть-Тарке

Время (UTC), дата Ветер
(напр.,м/с)
 
Видим.   Явления Облачность Т
(С)
Тd
(С)
f
(%)
Тe
(С)
Тes
(С)
Комфортность P
(гПа)
Po
(гПа)
Тmin
(С)
Tmax
(С)
R
(мм)
R24
(мм)
S
(см)
00 18.03 штиль 0 50 км ясно -18.2 -19.9 86 -18 -18 1036.0 1022.3 -21.2 38
03 18.03 штиль 0 50 км ясно -16.5 -18.8 82 -17 -14 1037.7 1024.0
06 18.03 З 1 50 км ясно -6.7 -10.9 72 -9 -1 1038.5 1025.3
09 18.03 З 3 50 км ясно -3.4 -9.8 61 -8 -4 1038.3 1025.3
12 18.03 ЮЗ 3 50 км ясно -3.9 -9.6 65 -9 -8 1036.5 1023.5 -2.9
15 18.03 ЮЗ 1 50 км ясно -9.2 -11.5 83 -12 -12 1037.3 1024.0
18 18.03 ЮЗ 1 50 км ясно -10.7 -12.6 86 -13 -13 1037.4 1024.0
21 18.03 ЮЗ 1 50 км ясно -12.3 -13.7 89 -15 -15 1037.5 1024.0
00 19.03 Ю 2 50 км ясно -13.2 -14.7 88 -18 -18 1035.9 1022.5 -13.5 38
03 19.03 ЮЗ 1 50 км 10/0
[As trans]
-10.7 -12.2 89 -13 -13 1037.4 1024.0 -13.6
06 19.03 З 4 50 км 7 баллов -5.9 -9.9 73 -12 -11 1037.2 1024.0
09 19.03 З 4 50 км 3/0
[Ci sp]
-2.9 -9.4 61 -9 -6 1035.7 1022.7
12 19.03 З 3 50 км ясно -3.5 -9.6 63 -8 -8 1034.4 1021.5 -2.2
15 19.03 З 2 50 км ясно -8.9 -11.6 81 -13 -13 1036.0 1022.7
18 19.03 штиль 0 50 км ясно -10.7 -12.2 89 -11 -11 1036.1 1022.7
21 19.03 ЮЗ 1 50 км ясно -11.8 -13.0 91 -14 -14 1037.5 1024.0
00 20.03 ЮЗ 1 4000 м в посл. час туман ясно -16.1 -18.2 84 -19 -19 1036.4 1022.8 -16.1 36
03 20.03 штиль 0 50 км 2 балла -12.4 -14.2 86 -12 -10 1037.5 1024.0 -17.3
06 20.03 ЮЗ 2 50 км 2 балла -4.8 -10.2 66 -9 -3 1037.1 1024.0
09 20.03 ЮЗ 4 50 км 2 балла -1.4 -9.5 54 -7 -4 1036.9 1024.0
12 20.03 ЮЗ 2 50 км 1/0
[Ci sp]
-1.7 -8.3 61 -5 -5 1034.6 1021.7 -1.0
15 20.03 Ю 1 50 км ясно -5.9 -10.7 69 -8 -8 1035.8 1022.7
18 20.03 ЮВ 3 50 км ясно -7.9 -10.7 80 -14 -14 1034.5 1021.3
21 20.03 Ю 3 50 км ясно -8.8 -10.6 87 -15 -15 1033.2 1020.0
00 21.03 ЮВ 3 50 км ясно -10.0 -12.2 84 -16 -16 1031.5 1018.3 -10.0 35
03 21.03 ЮВ 3 50 км ясно -8.5 -11.3 80 -14 -13 1031.9 1018.7 -10.7
06 21.03 Ю 4 50 км ясно -2.4 -10.2 55 -8 -3 1030.2 1017.3
09 21.03 Ю 6
{10}
50 км ясно -0.7 -7.9 58 -7 -5 1028.8 1016.0
12 21.03 Ю 4 50 км ясно -1.1 -6.1 69 -6 -6 1026.3 1013.6 -0.3
15 21.03 Ю 4 н/о н/о -4.4 -7.8 77 -11 -11 1026.2 1013.3
18 21.03 Ю 3 50 км ясно -6.1 -8.2 85 -12 -12 1025.0 1012.0
21 21.03 ЮВ 2 50 км ясно -7.0 -8.8 87 -11 -11 1022.3 1009.3
00 22.03 ЮВ 3 50 км ясно -8.6 -9.7 92 -15 -15 1020.4 1007.4 -8.8 38
03 22.03 ЮВ 2 50 км ясно -8.3 -9.6 90 -13 -11 1021.1 1008.0 -9.3
06 22.03 ЮВ 3 50 км ясно -3.0 -7.0 74 -8 -2 1020.8 1008.0
09 22.03 З 2 50 км ясно +0.4 -4.2 71 -3 +3 1020.6 1008.0
12 22.03 З 1 50 км ясно +0.5 -3.8 73 -1 -0 1020.6 1008.0 +0.8
15 22.03 ЮВ 1 50 км ясно -3.6 -5.1 89 -6 -6 1020.8 1008.0
18 22.03 ЮВ 2 50 км ясно -7.6 -8.4 94 -12 -12 1021.0 1008.0
21 22.03 ЮВ 1 50 км ясно -5.5 -6.7 91 -8 -8 1020.9 1008.0
00 23.03 В 1 50 км ясно -4.7 -5.6 93 -7 -7 1019.1 1006.3 -8.1 38
03 23.03 ЮВ 2 50 км 4 балла -4.3 -6.1 87 -9 -7 1020.9 1008.0
06 23.03 ЮВ 2 50 км 5 баллов -0.1 -4.2 74 -4 0 1019.3 1006.7
09 23.03 СЗ 1 50 км 1 балл +2.0 -2.7 71 +1 +7 1019.2 1006.7
12 23.03 ЮЗ 2 50 км ясно +1.2 -2.6 76 -2 -1 1017.9 1005.4 +3.2
15 23.03 штиль 0 50 км ясно -3.7 -4.5 94 -5 -5 1019.5 1006.7
18 23.03 Ю 1 50 км ясно -6.1 -6.8 95 -9 -9 1019.6 1006.7
21 23.03 З 1 50 км ясно -8.1 -9.2 92 -11 -11 1021.1 1008.0
00 24.03 штиль 0 50 км ясно -9.9 -11.2 90 -10 -10 1020.2 1007.1 -10.1 33
03 24.03 Ю 1 50 км ясно -5.2 -6.2 93 -8 -5 1022.2 1009.3 -11.5
12 24.03 З 3 50 км ясно +2.2 -2.4 72 -2 -1 1021.2 1008.7 +3.2

 

Местоположение метеостанции Усть-Тарка (Новосибирская область, Россия): широта 55.57 долгота 75.68 высота над уровнем моря 100 м.

В архиве по умолчанию представлена погода в Усть-Тарке за последнюю неделю. Архивные данные за месяц целиком и за предыдущие месяцы, начиная с января 2011 года, Вы можете получить, выбрав интересующий диапазон дат из раскрывающегося списка и нажав кнопку "Ввод!".


*Определитесь, кто Вы:
робот инопланетянин человек

Внимание! Время в таблицах - всемирное. Для получения местного времени необходимо прибавить поправку, которая равна 7 ч.

Смотрите также архив погоды в соседних городах и на ближайших метеорологических станциях:

Погода в Татарске (Новосибирская область, Россия) (44 км)
Погода в Нижней Омке (Омская область, Россия) (50 км)
Погода в Венгерово (Новосибирская область, Россия) (66 км)
Погода в Чанах (Новосибирская область, Россия) (73 км)
Погода в Большеречье (Омская область, Россия) (88 км)
Погода в Калачинске (Омская область, Россия) (92 км)
Погода в Муромцево (Омская область, Россия) (93 км)
Погода в Любимовке (Омская область, Россия) (107 км)
Погода в Чистоозерном (Новосибирская область, Россия) (112 км)
Погода в Кыштовке (Новосибирская область, Россия) (127 км)

Пояснения к столбцам:

Ветер - указаны скорость ветра в м/с - средняя за 10 мин, порывы в срок и между сроками (в фигурных скобках) и направление, откуда дует ветер: С - северный, СВ - северо-восточный, В - восточный, ЮВ - юго-восточный, Ю - южный, ЮЗ - юго-западный, З - западный, СЗ - северо-западный.
Видимость - горизонтальная дальность видимости в метрах или километрах. При видимости от 1 до 10 км при отсутствии осадков обычно наблюдается дымка, при ухудшении видимости до 1 км и менее - туман. В сухую погоду видимость может ухудшаться дымом, пылью или мглою.
Явления - указаны атмосферные явления, наблюдавшиеся в срок или в последний час перед сроком; фигурными скобками обозначены явления, наблюдавшиеся между сроками (за 1-3 часа до срока); квадратными скобками обозначены град или гололедные отложения с указанием их диаметра в мм.
Облачность - указаны через наклонную черту общая и нижняя облачность в баллах и высота нижней границы облаков в метрах; квадратными скобками обозначены формы облаков: Ci - перистые, Cs - перисто-слоистые, Cc - перисто-кучевые, Ac - высококучевые, As - высокослоистые, Sc - слоисто-кучевые, Ns - слоисто-дождевые, Cu - кучевые, Cb - кучево-дождевые. Подробнее классификацию облаков см. в Атласе облаков (PDF).
T - Температура воздуха - температура, измеренная на высоте 2 м над землей.
Td - Температура точки росы - температура, при понижении до которой содержащийся в воздухе водяной пар достигнет насыщения.
f - Относительная влажность воздуха - влажноcть воздуха, измеренная на высоте 2 м над землей.
Te - Эффективная температура - температура, которую ощущает одетый по сезону человек в тени. Характеристика душности погоды. При расчете учитывается влияние влажности воздуха и скорости ветра на теплоощущения человека.
Tes - Эффективная температура на солнце - температура, которую ощущает человек, с поправкой на солнечный нагрев. Характеристика знойности погоды. Зависит от высоты солнца над горизонтом, облачности и скорости ветра. Ночью, в пасмурную погоду, а также при ветре 12 м/с и более поправка равна нулю.
P - Атмосферное давление - приведенное к уровню моря атмосферное давление.
Po - Атмосферное давление - измеренное на уровне метеостанции атмосферное давление.
Tmin - Минимальная температура - минимум температуры воздуха на высоте 2 м над землей.
Tmax - Максимальная температура - максимум температуры воздуха на высоте 2 м над землей.
R - Количество осадков - Количество выпавших осадков за период времени, мм. При наведении курсора мыши на число - период времени, за который выпало указанное количество осадков.
R24 - Количество осадков - Количество выпавших осадков за 24 часа, мм.
S - Снежный покров - Высота снежного покрова, см. При наведении курсора мыши на число - состояние снежного покрова и степень покрытия местности в баллах.